Regional Weather Roundup
Issued by NWS

Home | Current Version | Previous Version | Graphics & Text | Print | Product List | Glossary On
Versions: 1 2 3 4 5 6 7 8 9 10 11 12 13 14 15 16 17 18 19 20 21 22 23 24 25 26 27 28 29 30 31 32 33 34 35 36 37 38 39 40 41 42 43 44 45 46 47 48 49 50
000
ASUS43 KMKX 220810
RWRWI

WISCONSIN REGIONAL WEATHER ROUNDUP
NATIONAL WEATHER SERVICE MILWAUKEE/SULLIVAN WI
200 AM CST SUN JAN 22 2017

NOTE: "FAIR" INDICATES FEW OR NO CLOUDS BELOW 12,000 FEET WITH NO
SIGNIFICANT WEATHER AND/OR OBSTRUCTIONS TO VISIBILITY.

WIZ001-002-006>008-014>016-023>028-220900-
NORTHWEST WISCONSIN

CITY           SKY/WX    TMP DP  RH WIND       PRES   REMARKS
SUPERIOR ARPT  CLOUDY    35  35 100 N3        29.58R
ASHLAND        FOG       34  34 100 CALM      29.56R VSB 1/2
HAYWARD        FOG       34  33  96 CALM      29.54R VSB 1
SIREN          CLOUDY    34  34  99 CALM      29.56R FOG
CUMBERLAND     CLOUDY    32  32 100 CALM      29.54R FOG
RICE LAKE      FOG       34  34 100 CALM      29.56R VSB 1/4
CHETEK         CLOUDY    33  33 100 CALM      29.55R FOG
LADYSMITH      FOG       35  34  98 MISG      29.55R VSB 3/4
EAU CLAIRE     LGT RAIN  34  32  92 CALM      29.54R VSB 1/2
MENOMONIE        N/A    N/A N/A N/A MISG        N/A
NEW RICHMOND   FOG       33  33 100 NW3       29.55S VSB 1/2
OSCEOLA        FOG       34  34 100 NW3       29.59R VSB 3/4
$$

WIZ003>005-009-010-017-018-220900-
NORTH CENTRAL WISCONSIN

CITY           SKY/WX    TMP DP  RH WIND       PRES   REMARKS
MANITOWISH WTR FOG       33  33 100 CALM      29.51R VSB 1/2
ARBOR VITAE    FOG       37  36  97 CALM      29.52R VSB 1/2
WOODRUFF       FOG       37  36  97 CALM      29.52R VSB 1/2
RHINELANDER    FOG       36  36 100 CALM      29.52R VSB 1/2
EAGLE RIVER    FOG       33  33 100 CALM      29.52R VSB 1/2
LAND O LAKES   CLOUDY    35  35 100 CALM      29.53R FOG
PHILLIPS       FOG       33  33 100 CALM      29.51R VSB 1/4
TOMAHAWK       FOG       33  33  98 CALM      29.53R VSB 3/4
MEDFORD        FOG       33  33  99 SW3       29.52R VSB 1/4
MERRILL        FOG       34  34 100 CALM        N/A  VSB 1/2
$$

WIZ029-030-035-036-043>047-220900-
CENTRAL WISCONSIN

CITY           SKY/WX    TMP DP  RH WIND       PRES   REMARKS
WAUSAU         FOG       35  35 100 SW5       29.52R VSB 1/4 WCI  31
MOSINEE        FOG       34  34 100 S3        29.55R VSB 1/4
MARSHFIELD     FOG       36  32  85 SW3       29.52R VSB 3/4
STEVENS POINT  FOG       34  34 100 CALM      29.55R VSB 1/4
WAUPACA        FOG       38  37  97 CALM      29.55S VSB 1/4
WAUTOMA        FOG       38  38 100 S3        29.56R VSB 3/4
WISC RAPIDS    FOG       37  37 100 SW5       29.55R VSB 1/4 WCI  33
CAMP DOUGLAS   CLOUDY    36  36 100 CALM      29.55R
$$

WIZ011>013-019>022-031-037>040-048>050-220900-
NORTHEAST WISCONSIN

CITY           SKY/WX    TMP DP  RH WIND       PRES   REMARKS
ANTIGO         FOG       33  33 100 CALM      29.53R VSB 1/4
SHAWANO        FOG       35  34  96 CALM      29.56R VSB 1/2
OCONTO         CLOUDY    34  34  99 CALM      29.56S VSB 1/2
STURGEON BAY   FOG       37  37 100 CALM      29.57S VSB 1
GREEN BAY      FOG       37  37 100 CALM      29.55S VSB 1/4
MANITOWOC      FOG       39  38  96 MISG      29.57S VSB 1/2
APPLETON       FOG       36  36 100 SW6       29.54R VSB 1/4 WCI  31
CLINTONVILLE   FOG       34  34 100 CALM      29.55S VSB 1/4
OSHKOSH        FOG       38  37  97 CALM      29.55S VSB 1/4
$$

WIZ032>034-041-042-053>061-220900-
SOUTHWEST WISCONSIN

CITY           SKY/WX    TMP DP  RH WIND       PRES   REMARKS
LA CROSSE      CLOUDY    39  37  92 CALM      29.56R FOG
SPARTA         CLOUDY    36  36 100 CALM      29.56S FOG
VIROQUA        CLOUDY    36  36 100 SW3       29.55R VSB 1/2
BOSCOBEL       FOG       38  37  97 SW3       29.58R VSB 1/2
PRAIRIE DU CHI CLOUDY    36  35  96 CALM      29.58R FOG
PLATTEVILLE    CLOUDY    37  37 100 SW6       29.58R VSB 1/2 WCI  33
$$

WIZ056-057-062-063-064-067-068-220900-
SOUTH CENTRAL WISCONSIN

CITY           SKY/WX    TMP DP  RH WIND       PRES   REMARKS
REEDSBURG      CLOUDY    38  38 100 CALM      29.55S FOG
BARABOO/DELLS  CLOUDY    38  38  99 SW3       29.55S FOG
LONE ROCK      FOG       37  36  96 CALM      29.57S VSB 1/4
MINERAL POINT  CLOUDY    39  39 100 W7        29.56S FOG     WCI  34
MADISON        FOG       40  39  97 CALM      29.57S VSB 1/4
MIDDLETON      CLOUDY    41  41 100 W5        29.56S VSB 1/2
WATERTOWN      CLOUDY    39  39 100 CALM      29.57R FOG
MONROE         FOG       36  36 100 SW5       29.56S VSB<1/4 WCI  32
JANESVILLE     FOG       37  37 100 CALM      29.57S VSB 1/4
$$

WIZ051-052-058>065-066-070>072-220900-
SOUTHEAST WISCONSIN

CITY           SKY/WX    TMP DP  RH WIND       PRES   REMARKS
MILWAUKEE      MOCLDY    41  38  89 SW5       29.58R
WAUKESHA       CLOUDY    37  37 100 S3        29.58S FOG
MILWAUKEE/TIMM CLOUDY    37  36  93 CALM      29.58S FOG
RACINE         CLEAR     41  38  89 CALM      29.59F
KENOSHA        FOG       37  36  96 SW3       29.58S VSB<1/4
FOND DU LAC    CLOUDY    40  37  89 SW6       29.56S FOG
SHEBOYGAN      FOG       35  34  96 CALM      29.56S VSB 3/4
WEST BEND      CLOUDY    41  41 100 CALM      29.57R FOG
JUNEAU         FOG       38  37  99 CALM      29.57S VSB<1/4
$$

LSZ147-162-220900-
LAKE SUPERIOR

STATION/POSITION TIME  TEMP    WIND        PRES    WAVE
                       AIR SEA DIR/SP/G            HT/PER
                 (UTC) (F)     (DEG/KT/KT) (MB)    (FT/S)
DEVILS ISLAND    0700   35      40/  9/ 10 1001.1R
PORT WING        0740   34     350/  3/  3 1001.4R
SAXON HARBOR     0740   34     190/  1/  2 1000.7R
$$

LMZ867-665-643>646-220900-
LAKE MICHIGAN

STATION/POSITION TIME  TEMP    WIND        PRES    WAVE
                       AIR SEA DIR/SP/G            HT/PER
                 (UTC) (F)     (DEG/KT/KT) (MB)    (FT/S)
NORTHPORT PIER   0740   38     230/  4/  8 1001.4R
SISTER BAY       0750   36        CALM       N/A
KEWAUNEE LAKESHO 0748   38      CALM  /  1 1000.9S
SHEBOYGAN LAKESH 0800   37     190/  6/  7 1001.5R
PORT WASHINGTON  0730   39      CALM  /  3 1002.4F
KENOSHA   LAKESH 0800   39     240/  2/  3 1002.0
$$

TC  - TEMPERATURE IN CELSIUS
VSB - VISIBILITY IN STATUTE MILES
WCI - WIND CHILL INDEX
HX  - HEAT INDEX




USA.gov is the U.S. government's official web portal to all federal, state and local government web resources and services.